Orbital Elements at Epoch 2459000.5 (2020-May-31.0) TDB
Reference: JPL 13 (heliocentric ecliptic J2000)
Element | Value | Uncertainty (1-sigma) | Units |
e | .3245791565155651 | 4.4906e-08 | |
a | 2.59995036431599 | 1.7663e-08 | au |
q | 1.756060668083969 | 1.1761e-07 | au |
i | 6.240515723834577 | 5.0634e-06 | deg |
node | 114.9533996559917 | 5.208e-05 | deg |
peri | 287.9062574117183 | 5.3208e-05 | deg |
M | 263.597518952387 | 1.7799e-05 | deg |
tp | 2459410.545190837991 (2021-Jul-15.04519084) | 7.9378e-05 | TDB |
period | 1531.249684629688 4.19 | 1.5604e-05 4.272e-08 | d yr |
n | .2351020892370411 | 2.3957e-09 | deg/d |
Q | 3.44384006054801 | 2.3396e-08 | au |
|
| | Orbit Determination Parameters
Additional Information
|